Powrót do katalogu

STARLINK-35442

AktywnyŁącznośćVLEO
NORAD 66319·PAYLOAD·🇺🇸 United States

Wystrzelony Nov 6, 2025 z Cape Canaveral Space Force Station

Loading…

Następne Przeloty (najbliższe 24 godziny)

TLE

ŚwieżeSource: CelesTrak SupGP

Epoka: Sep 15, 2026, 02:57 UTC

1 66319C 25253A   26258.12340278 -.00053194  00000+0 -19268-2 0  2581
2 66319  42.9994 223.0187 0001203 268.1840  37.2963 15.27603182    18

Śledź STARLINK-35442 w czasie rzeczywistym z AllMySat

Download on the App Store